EW1210 Weather Reports


time (UTC)temp
C
wind
direction
speed
KPH
gust
KPH
rain 1hr
cm
rain 24hr
cm
rain mn
cm
humidity
%
barometer
mb
20260507014513 12 304 0.0 8.0 0.00 0.33 0.33 87 1009.0
20260507013021 12 274 0.0 0.0 0.00 0.33 0.33 87 1009.1
20260507011512 12 218 0.0 4.8 0.00 0.33 0.33 87 1008.7
20260507010011 12 166 3.2 8.0 0.00 0.33 0.33 87 1008.5
20260507004510 12 188 0.0 6.4 0.00 0.33 0.33 87 1009.0
20260507003011 12 148 0.0 8.0 0.00 0.33 0.33 87 1009.1
20260507001510 12 300 3.2 12.9 0.00 0.33 0.33 87 1009.0
20260507000009 12 271 3.2 11.3 0.00 0.33 0.33 87 1008.9
20260506234517 12 181 1.6 11.3 0.00 0.33 0.33 87 1008.8
20260506233009 12 195 3.2 11.3 0.00 0.33 0.33 86 1008.7
20260506231508 12 243 4.8 17.7 0.00 0.33 0.33 86 1008.9
20260506230007 12 217 1.6 14.5 0.00 0.33 0.33 87 1008.7
20260506224509 12 229 1.6 11.3 0.00 0.33 0.33 86 1008.6
20260506223006 12 281 3.2 11.3 0.00 0.33 0.33 86 1008.5
20260506221505 12 194 3.2 8.0 0.03 0.33 0.33 86 1008.5
20260506220012 12 192 1.6 9.7 0.05 0.33 0.33 86 1008.4
20260506214504 12 145 0.0 9.7 0.08 0.33 0.33 87 1008.4
20260506213003 12 224 1.6 8.0 0.13 0.33 0.33 87 1008.3
20260506211501 12 224 4.8 12.9 0.10 0.30 0.30 87 1008.5
20260506210059 12 263 1.6 14.5 0.10 0.28 0.28 87 1008.6
20260506204558 12 214 3.2 11.3 0.08 0.25 0.25 87 1008.9
20260506203057 13 186 6.4 14.5 0.05 0.23 0.23 87 1009.0
20260506201556 13 236 3.2 17.7 0.05 0.20 0.20 87 1009.0
20260506200055 13 230 6.4 16.1 0.03 0.18 0.18 87 1009.0
20260506194555 13 222 4.8 16.1 0.03 0.18 0.18 87 1009.1
20260506193052 13 189 4.8 17.7 0.05 0.18 0.18 87 1009.2
20260506191550 12 195 3.2 14.5 0.08 0.15 0.15 87 1009.5
20260506190047 12 239 6.4 19.3 0.13 0.15 0.15 87 1009.9
20260506184547 12 200 0.0 12.9 0.15 0.15 0.15 87 1009.9
20260506183044 12 148 8.0 16.1 0.10 0.10 0.10 88 1010.0
20260506181542 13 204 4.8 9.7 0.05 0.05 0.05 88 1010.1
20260506180043 13 213 3.2 6.4 0.03 0.03 0.03 87 1010.4
20260506174538 13 277 3.2 12.9 0.00 0.00 0.00 87 1010.9
20260506173044 14 195 1.6 12.9 0.00 0.00 0.00 85 1010.9
20260506171540 15 162 3.2 20.9 0.00 0.00 0.00 84 1011.1
20260506170034 15 257 4.8 22.5 0.00 0.00 0.00 85 1011.2
20260506164543 15 278 6.4 20.9 0.00 0.00 0.00 84 1011.4
20260506163033 15 297 8.0 27.4 0.00 0.00 0.00 84 1011.4
20260506161533 15 204 4.8 17.7 0.00 0.00 0.00 83 1011.5
20260506160029 15 212 1.6 20.9 0.00 0.00 0.00 83 1011.9
20260506154527 16 222 9.7 27.4 0.00 0.00 0.00 81 1012.0
20260506153026 16 234 8.0 17.7 0.00 0.00 0.00 81 1011.9
20260506151525 16 232 3.2 14.5 0.00 0.00 0.00 81 1012.2
20260506150023 17 164 3.2 12.9 0.00 0.00 0.00 79 1012.2
20260506144525 17 296 1.6 19.3 0.00 0.00 0.00 80 1012.2
20260506143031 16 291 6.4 17.7 0.00 0.00 0.00 80 1012.4
20260506141520 16 212 4.8 14.5 0.00 0.00 0.00 80 1012.7
20260506140019 16 257 8.0 24.1 0.00 0.00 0.00 82 1012.5
20260506134519 16 225 3.2 8.0 0.00 0.00 0.00 82 1012.4
20260506133017 16 210 4.8 12.9 0.00 0.00 0.00 81 1012.2
20260506131518 16 207 4.8 11.3 0.00 0.00 0.00 82 1012.1
20260506130016 16 243 6.4 19.3 0.00 0.00 0.00 81 1012.5
20260506124512 16 203 4.8 14.5 0.00 0.00 0.00 83 1012.6
20260506123010 15 282 6.4 12.9 0.00 0.00 0.00 84 1012.8
20260506121508 15 254 4.8 12.9 0.00 0.00 0.00 85 1012.7
20260506120006 15 203 6.4 11.3 0.00 0.00 0.00 85 1012.8
20260506114505 15 215 3.2 11.3 0.00 0.00 0.00 86 1012.9
20260506113008 14 296 1.6 12.9 0.00 0.00 0.00 87 1012.7
20260506111504 14 284 1.6 8.0 0.00 0.00 0.00 87 1012.7
20260506110003 13 245 1.6 16.1 0.00 0.00 0.00 88 1012.8
20260506104501 -17 0.0 0.0 0.00 0.00 0.00 1012.8
20260506103057 -17 0.0 0.0 0.00 0.00 0.00 1012.8
20260506101553 -17 0.0 0.0 0.00 0.00 0.00 1012.7
20260506100048 -17 0.0 0.0 0.00 0.00 0.00 1012.6
20260506094547 -17 0.0 0.0 0.00 0.00 0.00 1012.4
20260506093046 -17 0.0 0.0 0.00 0.00 0.00 1012.6
20260506091535 13 272 3.2 12.9 0.00 0.00 0.00 87 1012.6
20260506090033 13 212 1.6 9.7 0.00 0.00 0.00 87 1012.9
20260506084533 13 210 4.8 14.5 0.00 0.00 0.00 87 1012.9
20260506083034 13 156 4.8 17.7 0.00 0.00 0.00 87 1012.9
20260506081529 13 228 1.6 8.0 0.00 0.00 0.00 87 1012.9
20260506073025 13 205 4.8 16.1 0.00 0.00 0.00 86 1013.1
20260506071525 14 207 8.0 17.7 0.00 0.00 0.00 86 1013.0
20260506061524 14 274 3.2 11.3 0.00 0.00 0.00 85 1013.0
20260506044503 14 291 4.8 17.7 0.00 0.00 0.00 83 1013.6
20260506043006 14 239 4.8 11.3 0.00 0.00 0.00 83 1013.6
20260506041502 14 34 6.4 16.1 0.00 0.00 0.00 83 1013.6
20260506040100 14 253 4.8 22.5 0.00 0.00 0.00 83 1013.5
20260506034558 14 169 6.4 16.1 0.00 0.00 0.00 83 1013.3
20260506033056 14 221 9.7 24.1 0.00 0.00 0.00 83 1013.4
20260506031602 14 228 6.4 17.7 0.00 0.00 0.00 82 1013.3
20260506030112 14 250 3.2 14.5 0.00 0.00 0.00 81 1013.3
20260506024555 15 260 6.4 19.3 0.00 0.00 0.00 80 1013.3
20260506023053 15 293 4.8 17.7 0.00 0.00 0.00 80 1013.1
20260506021553 15 218 6.4 14.5 0.00 0.00 0.00 80 1013.0
20260506020053 15 242 4.8 12.9 0.00 0.00 0.00 79 1013.0